Погода в Коростелево

Россия / Тамбовская область     51°50′05″N   42°25′09″E
темп.,
°C
ветер,
м/с
пор.,
м/с
влажн.,
%
обл.,
%
осадки,
мм/ч
давл.,
гПа
погр.,
м
18 мая, вт
вт1800:00+19вюв617496 0.0 1011312
03:00+15вюв4105671 0.0 1010142
06:00+15вюв4136675 0.0 1010214
09:00+23вюв6115154 0.0 1009370
12:00+27вюв711465 0.0 10081037
15:00+28вюв813466 0.0 10081444
18:00+25вюв614522 0.0 1007398
21:00+18ююз36736 0.0 100979
19 мая, ср
ср1900:00+16ссв3377100 0.0 100832
03:00+16юв117695 0.0 100814
06:00+16юв127753 0.0 100772
09:00+21юв355978 0.0 1007667
12:00+23ю455832 0.0 10071476
15:00+23ююв366199 0.2 10081453
18:00+22ю4765100 0.0 1008279
21:00+14зюз359455 0.1 1009112
20 мая, чт
чт2000:00+13ююв339787 0.1 101057
03:00+12ююв359783 0.1 1011129
06:00+12ююв379161 0.0 1011290
09:00+16ю677294 0.0 10111028
12:00+17ю687385 0.8 10111077
15:00+18ю697265 1.9 10111314
18:00+17ююз59760 0.8 1011939
21:00+13ююз49933 0.9 1013170
21 мая, пт
пт2100:00+12ююз38960 0.0 1015161
03:00+10ююз369649 0.0 1015117
06:00+12ююз369034 0.0 1017174
09:00+18ююз4669100 0.0 1018606
12:00+21ююз575867 0.0 10181640
15:00+23ююз565287 0.0 10181819
18:00+22ююв2467100 0.0 1018133
21:00+18вюв337490 0.0 101929
22 мая, сб
сб2200:00+16вюв477675 0.0 1019106
03:00+16вюв4974100 0.0 1018167
06:00+17юв61572100 0.0 1018365
09:00+22юв7146198 0.0 1018726
12:00+26ююв8114928 0.0 10171420
15:00+27ююв7125196 0.0 10161646
18:00+25ююв511595 0.0 1016384
21:00+20юв4117198 0.0 1016181